This is the latest recevied weather packets stored in our database for station/object IU1DOF-3. If no packets are shown the sender has not sent any weather packets the latest 10 day(s).
| Time | Temp. | Humidity | Pressure | Rain* | Wind** | Luminosity | Snow |
|---|---|---|---|---|---|---|---|
| 1777740959 | 17.22° C | 62% | 1018.8 hPa | 0 mm | - | - | - |
| 1777740341 | 18.33° C | 61% | 1018.8 hPa | 0 mm | - | - | - |
| 1777739729 | 18.89° C | 59% | 1018.9 hPa | 0 mm | - | - | - |
| 1777739103 | 18.89° C | 60% | 1019.2 hPa | 0 mm | - | - | - |
| 1777738479 | 18.89° C | 60% | 1019.2 hPa | 0 mm | - | - | - |
| 1777737855 | 18.89° C | 59% | 1019.3 hPa | 0 mm | - | - | - |
| 1777737231 | 18.89° C | 58% | 1019.2 hPa | 0 mm | - | - | - |
| 1777736620 | 18.89° C | 59% | 1019.2 hPa | 0 mm | - | - | - |
| 1777735999 | 18.89° C | 61% | 1019.1 hPa | 0 mm | - | - | - |
| 1777735375 | 18.89° C | 59% | 1019.3 hPa | 0 mm | - | - | - |
| 1777734761 | 18.33° C | 60% | 1019.3 hPa | 0 mm | - | - | - |
| 1777734143 | 18.89° C | 59% | 1019.5 hPa | 0 mm | - | - | - |
| 1777733519 | 19.44° C | 60% | 1019.7 hPa | 0 mm | - | - | - |
| 1777732901 | 19.44° C | 58% | 1019.9 hPa | 0 mm | - | - | - |
| 1777732287 | 19.44° C | 58% | 1019.6 hPa | 0 mm | - | - | - |
| 1777731663 | 18.89° C | 61% | 1019.9 hPa | 0 mm | - | - | - |
| 1777731039 | 19.44° C | 58% | 1020.1 hPa | 0 mm | - | - | - |
| 1777730415 | 18.89° C | 63% | 1020.3 hPa | 0 mm | - | - | - |
| 1777729791 | 18.89° C | 61% | 1020.4 hPa | 0 mm | - | - | - |
| 1777729183 | 19.44° C | 58% | 1020.5 hPa | 0 mm | - | - | - |
| 1777728575 | 19.44° C | 61% | 1020.7 hPa | 0 mm | - | - | - |
| 1777727952 | 18.89° C | 59% | 1020.7 hPa | 0 mm | - | - | - |
| 1777727343 | 18.89° C | 59% | 1020.9 hPa | 0 mm | - | - | - |
| 1777726721 | 18.89° C | 62% | 1020.9 hPa | 0 mm | - | - | - |
| 1777726112 | 18.89° C | 60% | 1020.7 hPa | 0 mm | - | - | - |
* Rain latest hour (hover to see other rain measurements)
** Current wind speed in m/s (hover to see current wind gust speed)